Location: Potomac
(46.8816°N, 113.5795°W)
Time: 17:18:09
(UTC+00:00)

UKube-1 - Pass Details

Date: 04 July 2022
Orbit: 608 x 615 km, 98.4° (Epoch: 18 August)

Event Time Altitude Azimuth Distance (km) Brightness Sun altitude
Rises 06:41:54 0° 3° (N) 2,897 ? -19.1°
Reaches altitude 10° 06:44:24 10° 349° (N) 1,985 ? -19.2°
Maximum altitude 06:47:52 24° 296° (WNW) 1,284 ? -19.3°
Drops below altitude 10° 06:51:17 10° 242° (WSW) 1,969 ? -19.4°
Enters shadow 06:51:37 - 240° (WSW) 2,077 ? -19.4°
